View from above orbital plane
|
View from above satellite
|
Ground track
|
The orbit data is extracted from the following two-line orbital elements,
1 25860U 99039A 13168.46827623 .00000210 00000-0 38955-4 0 9737
2 25860 097.9898 130.9137 0002076 118.8718 028.4480 14.74617033748399
| Epoch (UTC): | 17 June 2013 11:14:19 |
| Eccentricity: | 0.0002076 |
| inclination: | 97.9898° |
| perigee height: | 645 km |
| apogee height: | 648 km |
| right ascension of ascending node: | 130.9137° |
| argument of perigee: | 118.8718° |
| revolutions per day: | 14.74617033 |
| mean anomaly at epoch: | 28.4480° |
| orbit number at epoch: | 74839 |
The dashed part of the orbit path shows where the satellite is in the earth's shadow,
|
|